STARLINK-4199 (52857 NORAD) Tracking and Keplerian Element Data

This shows tracking and keplerian element data for the satellite.

Feedback or suggestion? Click here.




ElementValue
Catalog52857
NameSTARLINK-4199
Epoch Orbit130
Epoch Day247.83334491
Epoch Year2022
RAAN18.6279
Inclination53.2174
Eccentricity0.000139
Argument of Perigee76.6642
Mean Anonmoly69.4738
Mean Motion15.13551011
Decay Rate-0.01069116
L11 52857U 22062AD 22247.83334491 -.01069116 00000+0 -63632-1 0 9997
L22 52857 53.2174 18.6279 0001390 76.6642 69.4738 15.13551011 1302

Live tracking and technical data element details for STARLINK-4199 (NORAD 52857). STARLINK-4199 can be tracked NOW for your location showing map with azimuth and elevation plus other details from your city location.

Track the satellite on the map from your city or location and see movement details for azimuth, elevation, latitude, longitude, range, height, and movement on the map or in text.







IsCatalogInMostPopularTable: catalog: 52857, numindb: 8
Update: records affected: 1



GetName: 52857 STARLINK-4199

Hit Count: updated at: Sun, 25 Sep 2022 08:28:52 GMT